FW6466 Weather Reports


Display with metric or nautical units.
time (UTC)temp
F
wind
direction
speed
MPH
gust
MPH
rain 1hr
in
rain 24hr
in
rain mn
in
humidity
%
barometer
mb
20260502170516 57 313 6.0 12.0 0.00 0.02 0.01 42 1011.5
20260502164037 55 324 6.0 14.0 0.00 0.02 0.01 43 1011.6
20260502163308 56 315 5.0 7.0 0.00 0.02 0.01 46 1011.6
20260502162536 56 326 7.0 19.0 0.00 0.02 0.01 47 1011.6
20260502161516 56 317 5.0 11.0 0.00 0.02 0.01 45 1011.6
20260502160536 56 330 4.0 10.0 0.00 0.02 0.01 48 1011.6
20260502151820 52 0 4.0 3.0 0.00 0.02 0.01 54 1011.9
20260502150516 51 325 5.0 13.0 0.00 0.02 0.01 55 1011.9
20260502130517 48 324 7.0 16.0 0.00 0.02 0.01 66 1012.1
20260502123017 47 319 4.0 11.0 0.00 0.02 0.01 74 1012.0
20260502122321 45 23 3.0 11.0 0.00 0.02 0.01 75 1011.9
20260502121308 45 0 4.0 9.0 0.00 0.02 0.01 76 1011.9
20260502115331 44 270 5.0 10.0 0.00 0.02 0.01 78 1011.9
20260502113856 44 315 5.0 11.0 0.00 0.02 0.01 79 1011.7
20260502112813 44 315 5.0 8.0 0.00 0.02 0.01 79 1011.6
20260502112017 43 319 7.0 14.0 0.00 0.02 0.01 79 1011.5
20260502111312 44 338 4.0 9.0 0.00 0.02 0.01 79 1011.5
20260502110307 44 315 5.0 5.0 0.00 0.02 0.01 79 1011.4
20260502105515 44 323 6.0 11.0 0.00 0.02 0.01 79 1011.4
20260502104809 44 45 5.0 9.0 0.00 0.02 0.01 79 1011.3
20260502104017 43 324 4.0 14.0 0.00 0.02 0.01 79 1011.3
20260502103313 43 338 4.0 8.0 0.00 0.02 0.01 79 1011.3
20260502102517 43 307 4.0 11.0 0.00 0.02 0.01 79 1011.3
20260502101516 43 324 5.0 12.0 0.00 0.02 0.01 79 1011.3
20260502100517 44 320 4.0 12.0 0.00 0.02 0.01 79 1011.2
20260502091309 45 315 3.0 5.0 0.00 0.02 0.01 77 1011.0
20260502071515 48 180 1.0 1.0 0.00 0.02 0.01 73 1010.8
20260502071147 48 225 1.0 0.0 0.00 0.02 0.01 72 1011.1
20260502065515 48 317 1.0 3.0 0.00 0.02 0.01 73 1011.2
20260502064813 48 225 1.0 1.0 0.00 0.02 0.01 73 1011.2
20260502063856 48 0.0 0.0 0.00 0.02 0.01 74 1011.1
20260502062517 48 0.0 0.0 0.00 0.02 0.01 73 1011.0
20260502061809 48 0.0 0.0 0.00 0.02 0.01 72 1011.1
20260502060516 48 0.0 0.0 0.00 0.02 0.01 72 1011.2
20260502055857 48 0.0 0.0 0.00 0.02 0.01 73 1011.3
20260502055017 48 0.0 0.0 0.00 0.02 0.01 73 1011.3
20260502054016 48 0.0 0.0 0.00 0.02 0.01 73 1011.3
20260502053313 48 225 1.0 1.0 0.01 0.02 0.01 72 1011.4
20260502052017 48 225 1.0 1.0 0.01 0.02 0.01 73 1011.5
20260502051356 48 0.0 1.0 0.01 0.02 0.01 73 1011.5
20260502050018 48 225 0.0 1.0 0.01 0.02 0.01 72 1011.4
20260502045309 48 180 1.0 0.0 0.01 0.02 0.01 70 1011.5
20260502044016 49 215 1.0 2.0 0.01 0.02 0.01 71 1011.5
20260502043313 49 45 1.0 1.0 0.00 0.01 0.00 69 1011.6
20260502042517 49 315 0.0 2.0 0.00 0.01 0.00 70 1011.5
20260502041810 49 0.0 1.0 0.00 0.01 0.00 69 1011.3
20260502040822 49 203 1.0 1.0 0.00 0.01 0.00 68 1011.3
20260502035857 49 270 1.0 2.0 0.00 0.01 0.01 68 1011.3
20260502034517 49 291 0.0 1.0 0.00 0.01 0.01 66 1011.4
20260502033855 50 225 1.0 2.0 0.01 0.01 0.01 68 1011.4
20260502033015 50 238 2.0 4.0 0.01 0.01 0.01 68 1011.4
20260502032017 50 211 1.0 3.0 0.01 0.01 0.01 66 1011.4
20260502031016 50 200 0.0 3.0 0.01 0.01 0.01 65 1011.4
20260502030313 51 135 1.0 3.0 0.01 0.01 0.01 65 1011.4
20260502025517 51 194 1.0 2.0 0.01 0.01 0.01 63 1011.4
20260502024808 51 180 1.0 2.0 0.01 0.01 0.01 61 1011.4
20260502023515 52 217 1.0 4.0 0.01 0.01 0.01 59 1011.4
20260502022856 53 180 1.0 2.0 0.00 0.00 0.00 54 1011.4
20260502021516 54 241 1.0 7.0 0.00 0.00 0.00 52 1011.3
20260502020517 54 328 1.0 5.0 0.00 0.00 0.00 49 1011.3
20260502015516 54 292 2.0 6.0 0.00 0.00 0.00 49 1011.2
20260502014557 54 329 1.0 2.0 0.00 0.00 0.00 51 1011.0
20260502013820 54 0.0 0.0 0.00 0.00 0.00 49 1010.9
20260502012810 54 180 1.0 1.0 0.00 0.00 0.00 47 1010.8
20260502011809 54 180 1.0 1.0 0.00 0.00 0.00 46 1010.8
20260502011036 54 184 1.0 2.0 0.00 0.00 0.00 47 1010.7
20260502010356 54 203 1.0 1.0 0.00 0.00 0.00 45 1010.6
20260502005404 54 270 1.0 2.0 0.00 0.00 0.00 46 1010.5
20260502004015 55 270 1.0 6.0 0.00 0.00 0.00 45 1010.4
20260502003036 55 199 1.0 3.0 0.00 0.00 0.00 44 1010.4
20260502002016 55 212 1.0 3.0 0.00 0.00 0.00 43 1010.4
20260502001057 56 181 1.0 3.0 0.00 0.00 0.00 43 1010.3
20260502000017 56 223 1.0 5.0 0.00 0.00 0.00 42 1010.2
20260501235036 57 359 1.0 1.0 0.00 0.00 0.00 40 1010.2
20260501234311 57 180 1.0 2.0 0.00 0.00 0.00 39 1010.1
20260501233015 58 326 1.0 5.0 0.00 0.00 0.00 38 1009.9
20260501232408 58 338 3.0 2.0 0.00 0.00 0.00 39 1009.8
20260501231357 58 180 2.0 6.0 0.00 0.00 0.00 37 1009.8
20260501230016 58 331 2.0 5.0 0.00 0.00 0.00 36 1009.6
20260501225016 59 321 2.0 6.0 0.00 0.00 0.00 36 1009.6
20260501224409 59 270 3.0 6.0 0.00 0.00 0.00 35 1009.5
20260501223517 59 306 2.0 13.0 0.00 0.00 0.00 35 1009.5
20260501222518 60 317 3.0 8.0 0.00 0.00 0.00 34 1009.5
20260501221516 60 327 3.0 10.0 0.00 0.00 0.00 35 1009.5
20260501220640 61 315 3.0 5.0 0.00 0.00 0.00 34 1009.5
20260501215516 61 329 3.0 6.0 0.00 0.00 0.00 33 1009.4
20260501214811 62 315 3.0 5.0 0.00 0.00 0.00 33 1009.4
20260501213517 62 317 3.0 10.0 0.00 0.00 0.00 33 1009.4
20260501212856 63 135 4.0 5.0 0.00 0.00 0.00 32 1009.4
20260501211515 63 321 6.0 13.0 0.00 0.00 0.00 31 1009.5
20260501210516 63 2 3.0 14.0 0.00 0.00 0.00 32 1009.5
20260501205517 63 317 5.0 12.0 0.00 0.00 0.00 30 1009.5
20260501204808 64 315 3.0 15.0 0.00 0.00 0.00 29 1009.5
20260501203538 65 316 5.0 10.0 0.00 0.00 0.00 31 1009.5
20260501202856 66 90 5.0 7.0 0.00 0.00 0.00 28 1009.6
20260501201536 66 325 7.0 17.0 0.00 0.00 0.00 28 1009.6
20260501200555 66 295 4.0 14.0 0.00 0.00 0.00 29 1009.6
20260501195541 66 315 4.0 5.0 0.00 0.00 0.00 28 1009.6
20260501194857 66 0 3.0 11.0 0.00 0.00 0.00 28 1009.6
20260501193517 65 234 4.0 13.0 0.00 0.00 0.00 29 1009.7
20260501192616 65 322 7.0 16.0 0.00 0.00 0.00 28 1009.8
20260501191537 64 322 6.0 14.0 0.00 0.00 0.00 28 1009.8
20260501190516 64 289 5.0 13.0 0.00 0.00 0.00 29 1009.8
20260501185517 64 323 6.0 16.0 0.00 0.00 0.00 29 1009.8
20260501184807 64 315 4.0 12.0 0.00 0.00 0.00 28 1009.9
20260501183518 64 319 4.0 13.0 0.00 0.00 0.00 31 1010.0
20260501182516 63 316 6.0 24.0 0.00 0.00 0.00 31 1010.1
20260501181817 63 270 5.0 12.0 0.00 0.00 0.00 30 1010.2
20260501180516 63 262 5.0 11.0 0.00 0.00 0.00 31 1010.2
20260501175517 63 309 6.0 12.0 0.00 0.00 0.00 31 1010.3
20260501174928 62 338 5.0 15.0 0.00 0.00 0.00 31 1010.3
20260501173517 63 315 6.0 15.0 0.00 0.00 0.00 32 1010.3
20260501172810 62 270 5.0 8.0 0.00 0.00 0.00 35 1010.4